Madison, SD

8:19 PM CST on December 15, 2019 (GMT -0600)
Madison Municipal

Weather History for KMDS - October, 2019

Change the Weather History Date:

Wednesday, October 2, 2019

  Actual Average Record
Temperature  
Mean Temperature 42 °F -  
Max Temperature 44 °F 70 °F 80 °F (2013)
Min Temperature 41 °F 40 °F 35 °F (2010)
Degree Days  
Heating Degree Days 22    
Moisture  
Dew Point 43 °F    
Average Humidity 100    
Maximum Humidity 100    
Minimum Humidity 100    
Precipitation  
Precipitation 0.38 in - - ()
Sea Level Pressure  
Sea Level Pressure 30.06 in    
Wind  
Wind Speed 12 mph ()    
Max Wind Speed 18 mph    
Max Gust Speed 25 mph    
Visibility 7.5 miles    
Events Rain    
Averages and records for this station are not official NWS values.
T = Trace of Precipitation, MM = Missing Value Source: Averaged Metar Reports

Daily Weather History Graph

Daily Weather History Graph

Search for Another Location

Airport or City:

Astronomy

Oct. 02, 2019 Rise Set
Actual Time 7:27 AM CDT 7:07 PM CDT
Civil Twilight 6:58 AM CDT 7:36 PM CDT
Nautical Twilight 6:24 AM CDT 8:09 PM CDT
Astronomical Twilight 5:50 AM CDT 8:43 PM CDT
Moon 12:02 PM CDT (10/2) 9:53 PM CDT (10/2)
Length of Visible Light 12h 38m
Length of Day
11h 40m
Waxing Crescent, 20% of the Moon is Illuminated
Oct 2
Waxing Crescent
Oct 5
First Quarter
Oct 13
Full
Oct 21
Last Quarter
Oct 27
New

Hourly Weather History & Observations

Time (CDT) Temp. Windchill Dew Point Humidity Pressure Visibility Wind Dir Wind Speed Gust Speed Precip Events Conditions
12:00 AM 42.8 °F 34.8 °F 42.8 °F 100% 30.06 in 10.0 mi NNE 17.3 mph 23.0 mph N/A   Overcast
12:15 AM 41.0 °F 32.2 °F 41.0 °F 100% 30.06 in 10.0 mi NNE 18.4 mph 21.9 mph N/A   Overcast
12:35 AM 41.0 °F 33.9 °F 41.0 °F 100% 30.07 in 10.0 mi NNE 12.7 mph 19.6 mph N/A   Overcast
12:55 AM 42.8 °F 35.8 °F 42.8 °F 100% 30.08 in 10.0 mi NNE 13.8 mph 18.4 mph N/A   Overcast
1:00 AM 42.8 °F 36.2 °F 42.8 °F 100% 30.08 in 10.0 mi NE 12.7 mph 18.4 mph N/A   Overcast
1:15 AM 42.8 °F 36.6 °F 42.8 °F 100% 30.07 in 10.0 mi NNE 11.5 mph - N/A   Overcast
1:20 AM 42.8 °F 35.8 °F 42.8 °F 100% 30.07 in 10.0 mi NNE 13.8 mph 18.4 mph N/A   Overcast
1:35 AM 41.0 °F 33.1 °F 41.0 °F 100% 30.07 in 10.0 mi NNE 15.0 mph 20.7 mph N/A   Overcast
1:55 AM 41.0 °F 33.1 °F 41.0 °F 100% 30.09 in 10.0 mi NNE 15.0 mph - N/A   Overcast
2:00 AM 41.0 °F 32.8 °F 41.0 °F 100% 30.09 in 10.0 mi NNE 16.1 mph - N/A   Overcast
2:15 AM 41.0 °F 34.7 °F 41.0 °F 100% 30.09 in 10.0 mi NNE 10.4 mph 18.4 mph N/A   Overcast
2:35 AM 41.0 °F 33.5 °F 41.0 °F 100% 30.09 in 10.0 mi NNE 13.8 mph 19.6 mph N/A   Overcast
2:40 AM 41.0 °F 32.8 °F 41.0 °F 100% 30.09 in 10.0 mi NNE 16.1 mph 20.7 mph N/A   Overcast
2:55 AM 41.0 °F 33.9 °F 41.0 °F 100% 30.09 in 10.0 mi NNE 12.7 mph 16.1 mph N/A   Overcast
3:00 AM 41.0 °F 34.3 °F 41.0 °F 100% 30.09 in 10.0 mi NNE 11.5 mph 16.1 mph N/A   Overcast
3:15 AM 41.0 °F 33.9 °F 41.0 °F 100% 30.08 in 10.0 mi NNE 12.7 mph 18.4 mph N/A   Overcast
3:20 AM 41.0 °F 33.5 °F 41.0 °F 100% 30.08 in 10.0 mi NNE 13.8 mph 18.4 mph N/A   Overcast
3:35 AM 41.0 °F 33.9 °F 41.0 °F 100% 30.08 in 10.0 mi NNE 12.7 mph 21.9 mph N/A   Overcast
3:40 AM 41.0 °F 32.8 °F 41.0 °F 100% 30.09 in 10.0 mi NE 16.1 mph 19.6 mph N/A   Overcast
3:55 AM 41.0 °F 33.9 °F 41.0 °F 100% 30.08 in 10.0 mi NE 12.7 mph 20.7 mph N/A   Overcast
4:00 AM 41.0 °F 34.7 °F 41.0 °F 100% 30.08 in 10.0 mi NE 10.4 mph 20.7 mph N/A   Overcast
4:15 AM 41.0 °F 32.8 °F 41.0 °F 100% 30.07 in 10.0 mi NNE 16.1 mph 21.9 mph N/A   Overcast
4:20 AM 41.0 °F 32.2 °F 41.0 °F 100% 30.07 in 10.0 mi NE 18.4 mph 24.2 mph N/A   Overcast
4:35 AM 41.0 °F 32.5 °F 41.0 °F 100% 30.06 in 10.0 mi NNE 17.3 mph 23.0 mph N/A   Overcast
4:40 AM 41.0 °F 32.5 °F 41.0 °F 100% 30.06 in 10.0 mi NE 17.3 mph 24.2 mph N/A   Overcast
4:55 AM 41.0 °F 32.8 °F 41.0 °F 100% 30.07 in 10.0 mi NE 16.1 mph 23.0 mph N/A   Overcast
5:00 AM 41.0 °F 34.3 °F 41.0 °F 100% 30.08 in 10.0 mi NNE 11.5 mph 23.0 mph N/A   Overcast
5:15 AM 41.0 °F 32.8 °F 41.0 °F 100% 30.07 in 10.0 mi NE 16.1 mph 21.9 mph N/A   Overcast
5:35 AM 41.0 °F 32.8 °F 41.0 °F 100% 30.06 in 10.0 mi NE 16.1 mph 20.7 mph N/A   Overcast
5:40 AM 41.0 °F 32.8 °F 41.0 °F 100% 30.06 in 10.0 mi NE 16.1 mph 20.7 mph N/A   Overcast
5:55 AM 41.0 °F 33.5 °F 41.0 °F 100% 30.07 in 10.0 mi NE 13.8 mph 18.4 mph N/A   Overcast
6:00 AM 41.0 °F 33.5 °F 41.0 °F 100% 30.07 in 10.0 mi NE 13.8 mph 20.7 mph N/A   Overcast
6:20 AM 41.0 °F 33.9 °F 41.0 °F 100% 30.08 in 10.0 mi NE 12.7 mph - N/A   Overcast
6:35 AM 41.0 °F 34.7 °F 41.0 °F 100% 30.09 in 10.0 mi NE 10.4 mph - N/A   Overcast
6:40 AM 41.0 °F 32.8 °F 41.0 °F 100% 30.08 in 10.0 mi NE 16.1 mph 19.6 mph N/A   Overcast
6:55 AM 41.0 °F 32.8 °F 41.0 °F 100% 30.06 in 10.0 mi NE 16.1 mph 23.0 mph N/A   Overcast
7:00 AM 41.0 °F 32.2 °F 41.0 °F 100% 30.06 in 10.0 mi NE 18.4 mph 25.3 mph N/A   Overcast
7:35 AM 41.0 °F 33.5 °F 41.0 °F 100% 30.07 in 10.0 mi NE 13.8 mph 23.0 mph N/A   Overcast
7:40 AM 41.0 °F 33.5 °F 41.0 °F 100% 30.08 in 10.0 mi NE 13.8 mph 23.0 mph N/A   Overcast
7:55 AM 41.0 °F 34.3 °F 41.0 °F 100% 30.08 in 10.0 mi NE 11.5 mph - N/A   Overcast
8:00 AM 41.0 °F 34.7 °F 41.0 °F 100% 30.09 in 10.0 mi NE 10.4 mph - N/A   Overcast
8:15 AM 41.0 °F 34.7 °F 41.0 °F 100% 30.10 in 10.0 mi NNE 10.4 mph - N/A   Overcast
8:40 AM 41.0 °F 32.8 °F 41.0 °F 100% 30.09 in 10.0 mi NNE 16.1 mph 23.0 mph N/A Rain Light Rain
8:55 AM 41.0 °F 33.1 °F 41.0 °F 100% 30.08 in 10.0 mi NE 15.0 mph 20.7 mph N/A Rain Light Rain
9:15 AM 41.0 °F 33.9 °F 41.0 °F 100% 30.10 in 10.0 mi ENE 12.7 mph 17.3 mph N/A   Overcast
9:35 AM 41.0 °F 32.8 °F 41.0 °F 100% 30.07 in 7.0 mi ENE 16.1 mph 21.9 mph 0.08 in Rain Rain
9:40 AM 41.0 °F 32.8 °F 41.0 °F 100% 30.05 in 5.0 mi NE 16.1 mph 21.9 mph 0.11 in Rain Rain
9:55 AM 41.0 °F 32.8 °F 41.0 °F 100% 30.06 in 5.0 mi ENE 16.1 mph 21.9 mph 0.20 in Rain Rain
10:15 AM 41.0 °F 33.5 °F 41.0 °F 100% 30.07 in 10.0 mi NE 13.8 mph 20.7 mph N/A Rain Light Rain
10:20 AM 41.0 °F 33.5 °F 41.0 °F 100% 30.07 in 10.0 mi NE 13.8 mph - N/A Rain Light Rain
10:35 AM 41.0 °F 33.1 °F 41.0 °F 100% 30.07 in 10.0 mi NE 15.0 mph 18.4 mph 0.01 in Rain Light Rain
10:40 AM 41.0 °F 33.9 °F 41.0 °F 100% 30.07 in 10.0 mi NE 12.7 mph 19.6 mph 0.01 in Rain Light Rain
10:55 AM 41.0 °F 33.9 °F 41.0 °F 100% 30.05 in 10.0 mi NE 12.7 mph 20.7 mph 0.02 in Rain Light Rain
11:00 AM 41.0 °F 35.2 °F 41.0 °F 100% 30.07 in 10.0 mi NNE 9.2 mph 20.7 mph 0.02 in Rain Light Rain
11:15 AM 41.0 °F 34.3 °F 41.0 °F 100% 30.06 in 10.0 mi ENE 11.5 mph - N/A   Mostly Cloudy
11:35 AM 41.0 °F 34.7 °F 41.0 °F 100% 30.08 in 10.0 mi NNE 10.4 mph - N/A   Overcast
11:40 AM 41.0 °F 34.7 °F 41.0 °F 100% 30.07 in 10.0 mi NE 10.4 mph - N/A   Overcast
11:55 AM 41.0 °F 34.3 °F 41.0 °F 100% 30.06 in 10.0 mi NE 11.5 mph - N/A Rain Light Rain
12:15 PM 41.0 °F 33.5 °F 41.0 °F 100% 30.06 in 8.0 mi NE 13.8 mph - N/A Rain Light Rain
12:20 PM 41.0 °F 34.3 °F 41.0 °F 100% 30.06 in 9.0 mi NE 11.5 mph - 0.01 in Rain Light Rain
12:35 PM 42.8 °F 36.2 °F 42.8 °F 100% 30.05 in 10.0 mi NE 12.7 mph - 0.04 in Rain Rain
12:40 PM 42.8 °F 36.6 °F 42.8 °F 100% 30.05 in 10.0 mi NE 11.5 mph - 0.04 in Rain Light Rain
12:55 PM 42.8 °F 36.2 °F 42.8 °F 100% 30.05 in 10.0 mi NE 12.7 mph 17.3 mph 0.05 in Rain Light Rain
1:15 PM 42.8 °F 37.0 °F 42.8 °F 100% 30.04 in 8.0 mi NE 10.4 mph - N/A Rain Light Rain
1:20 PM 42.8 °F 36.6 °F 42.8 °F 100% 30.04 in 4.0 mi NE 11.5 mph - N/A Rain Light Rain
1:35 PM 44.6 °F 37.8 °F 44.6 °F 100% 30.02 in 1.2 mi NE 15.0 mph - N/A Rain Light Rain
1:55 PM 42.8 °F 36.2 °F 42.8 °F 100% 30.02 in 1.2 mi NE 12.7 mph - 0.01 in   Overcast
2:00 PM 42.8 °F 37.0 °F 42.8 °F 100% 30.02 in 1.5 mi NE 10.4 mph - 0.01 in Rain Light Rain
2:15 PM 42.8 °F 36.2 °F 42.8 °F 100% 30.02 in 2.5 mi NE 12.7 mph 16.1 mph N/A Rain Light Rain
2:20 PM 42.8 °F 37.0 °F 42.8 °F 100% 30.02 in 3.0 mi NE 10.4 mph 16.1 mph N/A Rain Light Rain
2:35 PM 44.6 °F 39.7 °F 44.6 °F 100% 30.00 in 2.0 mi NE 9.2 mph - N/A Rain Light Rain
2:55 PM 44.6 °F 38.8 °F 44.6 °F 100% 30.01 in 2.5 mi NNE 11.5 mph - 0.03 in   Scattered Clouds
3:00 PM 44.6 °F 39.2 °F 44.6 °F 100% 30.01 in 4.0 mi NNE 10.4 mph - 0.03 in   Scattered Clouds
3:15 PM 44.6 °F 39.7 °F 44.6 °F 100% 30.01 in 10.0 mi NNE 9.2 mph - N/A Rain Light Rain
3:20 PM 44.6 °F 39.2 °F 44.6 °F 100% 30.01 in 10.0 mi NE 10.4 mph - N/A Rain Light Rain
3:35 PM 44.6 °F 40.2 °F 44.6 °F 100% 30.02 in 6.0 mi NE 8.1 mph - N/A Rain Light Rain
3:40 PM 44.6 °F 39.7 °F 44.6 °F 100% 30.02 in 2.5 mi NE 9.2 mph - 0.01 in Rain Light Rain
3:55 PM 44.6 °F 40.2 °F 44.6 °F 100% 30.02 in 1.5 mi NE 8.1 mph - 0.02 in Rain Light Rain
4:15 PM 44.6 °F 40.2 °F 44.6 °F 100% 30.02 in 1.8 mi NNE 8.1 mph - N/A Rain Light Rain
4:35 PM 44.6 °F 39.7 °F 44.6 °F 100% 30.02 in 1.2 mi NNE 9.2 mph - 0.01 in Rain Light Rain
4:40 PM 44.6 °F 39.2 °F 44.6 °F 100% 30.01 in 1.5 mi NNE 10.4 mph - 0.01 in Rain Light Rain
4:55 PM 44.6 °F 39.7 °F 44.6 °F 100% 30.01 in 2.0 mi NNE 9.2 mph - 0.02 in Rain Light Rain
5:15 PM 44.6 °F 39.7 °F 44.6 °F 100% 30.01 in 5.0 mi NNE 9.2 mph - N/A   Scattered Clouds
5:20 PM 44.6 °F 39.2 °F 44.6 °F 100% 30.01 in 5.0 mi NNE 10.4 mph - N/A   Mostly Cloudy
5:35 PM 44.6 °F 39.7 °F 44.6 °F 100% 30.01 in 4.0 mi NNE 9.2 mph - N/A   Mostly Cloudy
5:40 PM 44.6 °F 39.2 °F 44.6 °F 100% 30.01 in 2.5 mi NNE 10.4 mph - N/A   Mostly Cloudy
5:55 PM 44.6 °F 40.2 °F 44.6 °F 100% 30.02 in 4.0 mi NNE 8.1 mph - N/A   Overcast
6:00 PM 44.6 °F 40.2 °F 44.6 °F 100% 30.02 in 2.5 mi North 8.1 mph - N/A Rain Light Rain
6:15 PM 44.6 °F 39.7 °F 44.6 °F 100% 30.01 in 1.8 mi NNE 9.2 mph - N/A Rain Light Rain
6:35 PM 44.6 °F 40.2 °F 44.6 °F 100% 30.02 in 3.0 mi North 8.1 mph - N/A Rain Light Rain
6:40 PM 44.6 °F 39.2 °F 44.6 °F 100% 30.02 in 2.5 mi North 10.4 mph - N/A Rain Light Rain
6:55 PM 44.6 °F 40.2 °F 44.6 °F 100% 30.03 in 3.0 mi NNE 8.1 mph - N/A Rain Light Rain
7:00 PM 44.6 °F 40.2 °F 44.6 °F 100% 30.04 in 3.0 mi North 8.1 mph - N/A Rain Light Rain
7:15 PM 44.6 °F 40.2 °F 44.6 °F 100% 30.04 in 2.5 mi North 8.1 mph - N/A Rain Light Rain
7:20 PM 44.6 °F 40.7 °F 44.6 °F 100% 30.05 in 2.5 mi North 6.9 mph - N/A Rain Light Rain
7:35 PM 44.6 °F 41.4 °F 44.6 °F 100% 30.05 in 2.5 mi North 5.8 mph - N/A Rain Light Rain
7:40 PM 44.6 °F 42.2 °F 44.6 °F 100% 30.05 in 3.0 mi North 4.6 mph - N/A Rain Light Rain
7:55 PM 44.6 °F 40.2 °F 44.6 °F 100% 30.04 in 3.0 mi North 8.1 mph - N/A Rain Light Rain
8:00 PM 44.6 °F 40.2 °F 44.6 °F 100% 30.05 in 6.0 mi North 8.1 mph - N/A   Mostly Cloudy
8:15 PM 44.6 °F 40.7 °F 44.6 °F 100% 30.05 in 10.0 mi North 6.9 mph - N/A   Overcast
8:20 PM 44.6 °F 40.2 °F 44.6 °F 100% 30.06 in 10.0 mi NNW 8.1 mph - N/A   Overcast
8:35 PM 44.6 °F 39.2 °F 44.6 °F 100% 30.05 in 10.0 mi North 10.4 mph - N/A   Overcast
8:55 PM 44.6 °F 39.7 °F 44.6 °F 100% 30.06 in 10.0 mi North 9.2 mph - N/A   Overcast
9:15 PM 44.6 °F 40.2 °F 44.6 °F 100% 30.07 in 10.0 mi North 8.1 mph - N/A   Overcast
9:20 PM 44.6 °F 40.7 °F 44.6 °F 100% 30.07 in 10.0 mi NNW 6.9 mph - N/A   Overcast
9:35 PM 44.6 °F 40.7 °F 44.6 °F 100% 30.07 in 10.0 mi NNW 6.9 mph - N/A   Overcast
9:55 PM 44.6 °F 39.7 °F 44.6 °F 100% 30.08 in 3.0 mi NNW 9.2 mph - N/A Rain Light Rain
10:00 PM 44.6 °F 39.2 °F 44.6 °F 100% 30.08 in 3.0 mi NNW 10.4 mph - N/A Rain Light Rain
10:15 PM 44.6 °F 39.2 °F 44.6 °F 100% 30.08 in 7.0 mi NNW 10.4 mph - N/A Rain Light Rain
10:35 PM 44.6 °F 39.2 °F 44.6 °F 100% 30.07 in 10.0 mi NNW 10.4 mph - N/A   Overcast
10:55 PM 44.6 °F 38.4 °F 44.6 °F 100% 30.08 in 3.0 mi NW 12.7 mph - N/A   Overcast
11:15 PM 42.8 °F 36.6 °F 42.8 °F 100% 30.07 in 7.0 mi NNW 11.5 mph - N/A   Overcast
11:20 PM 42.8 °F 37.0 °F 42.8 °F 100% 30.07 in 6.0 mi NNW 10.4 mph - N/A   Overcast
11:35 PM 42.8 °F 38.0 °F 42.8 °F 100% 30.07 in 10.0 mi NNW 8.1 mph - N/A   Overcast
11:55 PM 42.8 °F 36.6 °F 42.8 °F 100% 30.09 in 10.0 mi NW 11.5 mph 17.3 mph N/A   Overcast